Overview Statistics Trail Chart Weather Telemetry Raw packets
 

This is the latest recevied weather packets stored in our database for station/object WA1TYB-13. If no packets are shown the sender has not sent any weather packets the latest 10 day(s).

<< 105 106 107 108 109 110 111 >>
Time Temp. Humidity Pressure Rain* Wind** Luminosity Snow
1787815174 16.67° C 60% 1021.4 hPa 0 mm - 0 W/m² -
1787814870 16.67° C 58% 1021.8 hPa 0 mm - 0 W/m² -
1787814569 16.67° C 61% 1021.4 hPa 0 mm - 0 W/m² -
1787814264 17.22° C 58% 1021.7 hPa 0 mm - 0 W/m² -
1787813958 16.67° C 60% 1021.4 hPa 0 mm - 0 W/m² -
1787813654 16.67° C 60% 1021.4 hPa 0 mm - 0 W/m² -
1787813349 17.22° C 60% 1021.7 hPa 0 mm - 0 W/m² -
1787813046 16.67° C 61% 1021.8 hPa 0 mm - 0 W/m² -
1787812745 16.67° C 61% 1021.8 hPa 0 mm - 0 W/m² -
1787812441 17.22° C 60% 1021.8 hPa 0 mm - 0 W/m² -
1787812135 17.22° C 59% 1022 hPa 0 mm - 0 W/m² -
1787811831 17.22° C 60% 1022 hPa 0 mm - 0 W/m² -
1787811530 17.78° C 60% 1022.2 hPa 0 mm - 0 W/m² -
1787811225 17.78° C 61% 1022.3 hPa 0 mm - 0 W/m² -
1787810921 18.33° C 60% 1022.2 hPa 0 mm - 0 W/m² -
1787810616 18.33° C 60% 1022.3 hPa 0 mm - 0 W/m² -
1787810315 18.89° C 54% 1022.2 hPa 0 mm - 0 W/m² -
1787810011 18.89° C 51% 1022.6 hPa 0 mm - 0 W/m² -
1787809705 19.44° C 53% 1022.2 hPa 0 mm - 0 W/m² -
1787809401 18.89° C 54% 1022.4 hPa 0 mm - 0 W/m² -
1787809097 20.56° C 48% 1022.4 hPa 0 mm - 0 W/m² -
1787808793 21.11° C 41% 1022.4 hPa 0 mm - 0 W/m² -
1787808492 21.11° C 43% 1022.2 hPa 0 mm - 0 W/m² -
1787808186 21.11° C 43% 1022.4 hPa 0 mm - 0 W/m² -
1787807884 21.67° C 42% 1022.1 hPa 0 mm - 0 W/m² -

* Rain latest hour (hover to see other rain measurements)
** Current wind speed in m/s (hover to see current wind gust speed)